Time,TemperatureF,DewpointF,PressureIn,WindDirection,WindDirectionDegrees,WindSpeedMPH,WindSpeedGustMPH,Humidity,HourlyPrecipIn,Conditions,Clouds,dailyrainin,SolarRadiationWatts/m^2,SoftwareType,DateUTC
2013-07-12 00:23:00,79.0,40.0,-100.00,WNW,286,15.0,24.0,25,0.00,,,0.00,764.000000,,2013-07-12 00:23:00,
2013-07-12 00:34:00,79.0,40.0,-100.00,WNW,286,15.0,24.0,25,0.00,,,0.00,764.000000,,2013-07-12 00:34:00,
2013-07-12 00:43:00,79.0,40.0,-100.00,WNW,286,15.0,24.0,25,0.00,,,0.00,764.000000,,2013-07-12 00:43:00,
2013-07-12 00:53:00,79.0,40.0,-100.00,WNW,286,15.0,24.0,25,0.00,,,0.00,764.000000,,2013-07-12 00:53:00,
2013-07-12 01:25:00,79.0,38.0,-100.00,West,274,11.0,21.0,23,0.00,,,0.00,595.000000,,2013-07-12 01:25:00,
2013-07-12 01:33:00,79.0,38.0,-100.00,West,274,11.0,21.0,23,0.00,,,0.00,595.000000,,2013-07-12 01:33:00,
2013-07-12 01:44:00,79.0,38.0,-100.00,West,274,11.0,21.0,23,0.00,,,0.00,595.000000,,2013-07-12 01:44:00,
2013-07-12 02:24:00,77.0,42.0,-100.00,WNW,297,10.0,19.0,29,0.00,,,0.00,408.000000,,2013-07-12 02:24:00,
2013-07-12 02:34:00,77.0,42.0,-100.00,WNW,297,10.0,19.0,29,0.00,,,0.00,408.000000,,2013-07-12 02:34:00,
2013-07-12 02:43:00,77.0,42.0,-100.00,WNW,297,10.0,19.0,29,0.00,,,0.00,408.000000,,2013-07-12 02:43:00,
2013-07-12 02:52:00,77.0,42.0,-100.00,WNW,297,10.0,19.0,29,0.00,,,0.00,408.000000,,2013-07-12 02:52:00,
2013-07-12 03:23:00,72.0,39.0,-100.00,NW,307,11.0,16.0,30,0.00,,,-99.99,213.000000,,2013-07-12 03:23:00,
2013-07-12 03:43:00,72.0,39.0,-100.00,NW,307,11.0,16.0,30,0.00,,,-99.99,213.000000,,2013-07-12 03:43:00,
2013-07-12 03:53:00,72.0,39.0,-100.00,NW,307,11.0,16.0,30,0.00,,,-99.99,213.000000,,2013-07-12 03:53:00,
2013-07-12 04:21:00,65.0,39.0,-100.00,NNW,334,2.0,16.0,39,0.00,,,0.00,48.000000,,2013-07-12 04:21:00,
2013-07-12 04:32:00,65.0,39.0,-100.00,NNW,334,2.0,16.0,39,0.00,,,0.00,48.000000,,2013-07-12 04:32:00,
2013-07-12 04:43:00,65.0,39.0,-100.00,NNW,334,2.0,16.0,39,0.00,,,0.00,48.000000,,2013-07-12 04:43:00,
2013-07-12 04:53:00,65.0,39.0,-100.00,NNW,334,2.0,16.0,39,0.00,,,0.00,48.000000,,2013-07-12 04:53:00,
2013-07-12 05:22:00,63.0,37.0,-100.00,WSW,242,4.0,7.0,38,0.00,,,0.00,1.000000,,2013-07-12 05:22:00,
2013-07-12 05:32:00,63.0,37.0,-100.00,WSW,242,4.0,7.0,38,0.00,,,0.00,1.000000,,2013-07-12 05:32:00,
2013-07-12 05:43:00,63.0,37.0,-100.00,WSW,242,4.0,7.0,38,0.00,,,0.00,1.000000,,2013-07-12 05:43:00,
2013-07-12 05:53:00,63.0,37.0,-100.00,WSW,242,4.0,7.0,38,0.00,,,0.00,1.000000,,2013-07-12 05:53:00,
2013-07-12 06:22:00,60.0,37.0,-100.00,ENE,71,2.0,5.0,42,0.00,,,0.00,1.000000,,2013-07-12 06:22:00,
2013-07-12 06:32:00,60.0,37.0,-100.00,ENE,71,2.0,5.0,42,0.00,,,0.00,1.000000,,2013-07-12 06:32:00,
2013-07-12 06:42:00,60.0,37.0,-100.00,ENE,71,2.0,5.0,42,0.00,,,0.00,1.000000,,2013-07-12 06:42:00,
2013-07-12 06:52:00,60.0,37.0,-100.00,ENE,71,2.0,5.0,42,0.00,,,0.00,1.000000,,2013-07-12 06:52:00,
2013-07-12 07:22:00,56.0,38.0,-100.00,East,85,3.0,4.0,50,0.00,,,0.00,1.000000,,2013-07-12 07:22:00,
2013-07-12 07:32:00,56.0,38.0,-100.00,East,85,3.0,4.0,50,0.00,,,0.00,1.000000,,2013-07-12 07:32:00,
2013-07-12 07:43:00,56.0,38.0,-100.00,East,85,3.0,4.0,50,0.00,,,0.00,1.000000,,2013-07-12 07:43:00,
2013-07-12 07:52:00,56.0,38.0,-100.00,East,85,3.0,4.0,50,0.00,,,0.00,1.000000,,2013-07-12 07:52:00,
2013-07-12 08:21:00,55.0,38.0,-100.00,ESE,114,3.0,4.0,52,0.00,,,0.00,1.000000,,2013-07-12 08:21:00,
2013-07-12 08:32:00,55.0,38.0,-100.00,ESE,114,3.0,4.0,52,0.00,,,0.00,1.000000,,2013-07-12 08:32:00,
2013-07-12 08:42:00,55.0,38.0,-100.00,ESE,114,3.0,4.0,52,0.00,,,0.00,1.000000,,2013-07-12 08:42:00,
2013-07-12 08:53:00,55.0,38.0,-100.00,ESE,114,3.0,4.0,52,0.00,,,0.00,1.000000,,2013-07-12 08:53:00,
2013-07-12 09:22:00,54.0,38.0,-100.00,East,95,1.0,4.0,54,0.00,,,0.00,1.000000,,2013-07-12 09:22:00,
2013-07-12 09:32:00,54.0,38.0,-100.00,East,95,1.0,4.0,54,0.00,,,0.00,1.000000,,2013-07-12 09:32:00,
2013-07-12 09:42:00,54.0,38.0,-100.00,East,95,1.0,4.0,54,0.00,,,0.00,1.000000,,2013-07-12 09:42:00,
2013-07-12 09:52:00,54.0,38.0,-100.00,East,95,1.0,4.0,54,0.00,,,0.00,1.000000,,2013-07-12 09:52:00,
2013-07-12 10:22:00,50.0,38.0,-100.00,East,79,4.0,5.0,63,0.00,,,0.00,1.000000,,2013-07-12 10:22:00,
2013-07-12 10:33:00,50.0,38.0,-100.00,East,79,4.0,5.0,63,0.00,,,0.00,1.000000,,2013-07-12 10:33:00,
2013-07-12 10:42:00,50.0,38.0,-100.00,East,79,4.0,5.0,63,0.00,,,0.00,1.000000,,2013-07-12 10:42:00,
2013-07-12 10:52:00,50.0,38.0,-100.00,East,79,4.0,5.0,63,0.00,,,0.00,1.000000,,2013-07-12 10:52:00,
2013-07-12 11:22:00,49.0,37.0,-100.00,ENE,67,5.0,6.0,63,0.00,,,0.00,1.000000,,2013-07-12 11:22:00,
2013-07-12 11:32:00,49.0,37.0,-100.00,ENE,67,5.0,6.0,63,0.00,,,0.00,1.000000,,2013-07-12 11:32:00,
2013-07-12 11:43:00,49.0,37.0,-100.00,ENE,67,5.0,6.0,63,0.00,,,0.00,1.000000,,2013-07-12 11:43:00,
2013-07-12 11:52:00,49.0,37.0,-100.00,ENE,67,5.0,6.0,63,0.00,,,0.00,1.000000,,2013-07-12 11:52:00,
2013-07-12 12:22:00,47.0,37.0,-100.00,ENE,66,5.0,8.0,68,0.00,,,0.00,1.000000,,2013-07-12 12:22:00,
2013-07-12 12:32:00,47.0,37.0,-100.00,ENE,66,5.0,8.0,68,0.00,,,0.00,1.000000,,2013-07-12 12:32:00,
2013-07-12 12:43:00,47.0,37.0,-100.00,ENE,66,5.0,8.0,68,0.00,,,0.00,1.000000,,2013-07-12 12:43:00,
2013-07-12 12:52:00,47.0,37.0,-100.00,ENE,66,5.0,8.0,68,0.00,,,0.00,1.000000,,2013-07-12 12:52:00,
2013-07-12 13:22:00,46.0,39.0,-100.00,ENE,75,6.0,8.0,77,0.00,,,0.00,3.000000,,2013-07-12 13:22:00,
2013-07-12 13:32:00,46.0,39.0,-100.00,ENE,75,6.0,8.0,77,0.00,,,0.00,3.000000,,2013-07-12 13:32:00,
2013-07-12 13:43:00,46.0,39.0,-100.00,ENE,75,6.0,8.0,77,0.00,,,0.00,3.000000,,2013-07-12 13:43:00,
2013-07-12 13:53:00,46.0,39.0,-100.00,ENE,75,6.0,8.0,77,0.00,,,0.00,3.000000,,2013-07-12 13:53:00,
2013-07-12 14:22:00,51.0,40.0,-100.00,ENE,70,5.0,7.0,65,0.00,,,0.00,73.000000,,2013-07-12 14:22:00,
2013-07-12 14:32:00,51.0,40.0,-100.00,ENE,70,5.0,7.0,65,0.00,,,0.00,73.000000,,2013-07-12 14:32:00,
2013-07-12 14:43:00,51.0,40.0,-100.00,ENE,70,5.0,7.0,65,0.00,,,0.00,73.000000,,2013-07-12 14:43:00,
2013-07-12 14:53:00,51.0,40.0,-100.00,ENE,70,5.0,7.0,65,0.00,,,0.00,73.000000,,2013-07-12 14:53:00,
2013-07-12 15:22:00,58.0,43.0,-100.00,ENE,71,4.0,8.0,58,0.00,,,0.00,252.000000,,2013-07-12 15:22:00,
2013-07-12 15:33:00,58.0,43.0,-100.00,ENE,71,4.0,8.0,58,0.00,,,0.00,252.000000,,2013-07-12 15:33:00,
2013-07-12 15:43:00,58.0,43.0,-100.00,ENE,71,4.0,8.0,58,0.00,,,0.00,252.000000,,2013-07-12 15:43:00,
2013-07-12 15:52:00,58.0,43.0,-100.00,ENE,71,4.0,8.0,58,0.00,,,0.00,252.000000,,2013-07-12 15:52:00,
2013-07-12 16:32:00,66.0,45.0,-100.00,NE,47,3.0,7.0,46,0.00,,,0.00,442.000000,,2013-07-12 16:32:00,
2013-07-12 16:42:00,66.0,45.0,-100.00,NE,47,3.0,7.0,46,0.00,,,0.00,442.000000,,2013-07-12 16:42:00,
2013-07-12 16:54:00,66.0,45.0,-100.00,NE,47,3.0,7.0,46,0.00,,,0.00,442.000000,,2013-07-12 16:54:00,
2013-07-12 17:34:00,69.0,44.0,-100.00,South,180,5.0,10.0,40,0.00,,,-99.99,626.000000,,2013-07-12 17:34:00,
2013-07-12 17:44:00,69.0,44.0,-100.00,South,180,5.0,10.0,40,0.00,,,-99.99,626.000000,,2013-07-12 17:44:00,
2013-07-12 17:53:00,69.0,44.0,-100.00,South,180,5.0,10.0,40,0.00,,,-99.99,626.000000,,2013-07-12 17:53:00,
2013-07-12 18:34:00,72.0,44.0,-100.00,South,185,6.0,12.0,37,0.00,,,0.00,791.000000,,2013-07-12 18:34:00,
2013-07-12 18:45:00,72.0,44.0,-100.00,South,185,6.0,12.0,37,0.00,,,0.00,791.000000,,2013-07-12 18:45:00,
2013-07-12 18:53:00,72.0,44.0,-100.00,South,185,6.0,12.0,37,0.00,,,0.00,791.000000,,2013-07-12 18:53:00,
2013-07-12 19:44:00,75.0,41.0,-100.00,SW,226,11.0,18.0,29,0.00,,,0.00,916.000000,,2013-07-12 19:44:00,
2013-07-12 19:53:00,75.0,41.0,-100.00,SW,226,11.0,18.0,29,0.00,,,0.00,916.000000,,2013-07-12 19:53:00,
2013-07-12 21:33:00,77.0,35.0,-100.00,West,273,11.0,19.0,22,0.00,,,0.00,1012.000000,,2013-07-12 21:33:00,
2013-07-12 21:43:00,77.0,35.0,-100.00,West,273,11.0,19.0,22,0.00,,,0.00,1012.000000,,2013-07-12 21:43:00,
2013-07-12 22:43:00,77.0,36.0,-100.00,WNW,291,14.0,24.0,23,0.00,,,0.00,981.000000,,2013-07-12 22:43:00,
2013-07-12 22:53:00,77.0,36.0,-100.00,WNW,291,14.0,24.0,23,0.00,,,0.00,981.000000,,2013-07-12 22:53:00,
2013-07-12 23:22:00,76.0,34.0,-100.00,WNW,282,14.0,26.0,22,0.00,,,0.00,902.000000,,2013-07-12 23:22:00,
2013-07-12 23:33:00,76.0,34.0,-100.00,WNW,282,14.0,26.0,22,0.00,,,0.00,902.000000,,2013-07-12 23:33:00,
2013-07-12 23:42:00,76.0,34.0,-100.00,WNW,282,14.0,26.0,22,0.00,,,0.00,902.000000,,2013-07-12 23:42:00,
2013-07-12 23:53:00,76.0,34.0,-100.00,WNW,282,14.0,26.0,22,0.00,,,0.00,902.000000,,2013-07-12 23:53:00,